FENGYUN 1C DEB

Satellite information

Favourite Embed

Satellite Type and Status

DEBRISIN ORBIT

Key statistics

Satellite FENGYUN 1C DEB at a glance.

Uptime

9715

Days in orbit

Revolutions

≈ 14.3

Per day

Orbit

SSO

Sun Synchronous Orbit

Inclination

98.4

Latest

Satellite identification and parameters

Extended collection of information and parameters for FENGYUN 1C DEB.

Object identification

Identified? True

Debris? True

Object name: FENGYUN 1C DEB

International designator: 1999-025CRD

Object number (NORAD): 32111

Object ID (CCSDS): 32111

Country: PEOPLES REPUBLIC OF CHINA (PRC)

Current information (Y/N): Y

RCS size: SMALL

Orbital parameters

Period: 100.591 minutes

Inclination: 98.4433 deg

SMA: 7164.724 km

Apoapsis: 872.243 km

Periapsis: 700.934 km

RAAN: 343.2869 deg

Eccentricy: 0.01195508

Argument of periapsis: 214.6006 deg

Mean anomaly: 301.2277 deg

Mean motion: 14.31540382 rev/day

Mean motion (dot): 0.00001022 rev/day2

B* drag term: 0.00037065644 1/REarth

Two-line elements (TLE)

Creation date: Dec. 9, 2025, 5:41 p.m.

Reference frame: TEME

Reference center: EARTH

Epoch: Dec. 9, 2025, 11:11 a.m. UTC

TLE line 0: 0 FENGYUN 1C DEB

TLE line 1: 1 32111U 99025CRD 25343.46664153 .00001022 00000-0 37066-3 0 9995

TLE line 2: 2 32111 98.4433 343.2869 0119551 214.6006 301.2277 14.31540382959845

Live tracking on map

Real-time ground track for satellite FENGYUN 1C DEB.

In-orbit conjunctions

A list of the most updated potential collisions computed for object FENGYUN 1C DEB.

Target Orbit TCA Probability of collision Miss distance Type
FENGYUN 1C DEB SSO 2025-07-27 08:01:25 0.0001272986 656.0 (m) DEBRIS

Associated space launch

Chinese polar orbiting meteorological satellite

FENGYUN 1C DEB was lifted into orbit during the mission ‘Long March 4B | Feng Yun 1C’, on board a Long March 4B space rocket.

The launch took place on May 10, 1999, 1:33 a.m. from Launch Complex 7.

For more information about the launch, click the button.

Launch to space Long March 4B | Feng Yun 1C
Long March 4B | Feng Yun 1C

Agency: N/A

Status: Launch Successful

Launch date: May 10, 1999, 1:33 a.m. UTC

Rocket: Long March 4B

Launch pad: Launch Complex 7

Location: Taiyuan Satellite Launch Center, People's Republic of China

...

Latest news about this satellite

There are no fresh news available about this satellite. Check back as we update our databases every day.


Newsletter sign-up

Weekly statistics, charts and insights to help you stay on top of the space industry.